Flag Weather past 2 weeks in Cheltenham, England, United Kingdom

Now
48 °F

Cool.


Feels Like: 45 °F
Forecast: 36 / 49 °F
Wind: 7 mph from Northwest

Location: Little Rissington

Current Time: Nov 23, 2014 at 1:21:30 AM

Latest Report: Nov 23, 2014 at 12:00 AM


Visibility: 9 mi

Pressure: 30.00 "Hg

Humidity: 99%

Dew point: 48 °F

Location of CheltenhamLocation

Historic Weather in Cheltenham — Graph

°F

Cheltenham temperature yesterday

Maximum temperature yesterday: 56 °F (at 2:00 PM)
Minimum temperature yesterday: 46 °F (at 12:00 AM)
Average temperature yesterday: 51 °F

Past Weeks' High & Low Weather Summary

 TemperatureHumidityPressure
High56 °F (Nov 22, 2:00 PM)100% (Nov 8, 12:00 AM)30.28 "Hg (Nov 8, 12:00 AM)
Low38 °F (Nov 9, 8:00 AM)72% (Nov 14, 2:00 PM)29.23 "Hg (Nov 12, 1:00 AM)
Average46 °F97%29.67 "Hg
* Reported Midnight between Nov 7 and Nov 8 — Midnight between Nov 22 and Nov 23, Cheltenham, Weather by CustomWeather, © 2014

Note: Actual official high and low records may vary slightly from our data, if they occured in-between our weather recording intervals... More about our weather records

Advertising

Cheltenham weather history for previous 24 hours

 ConditionsComfort  
Time TempWeatherWind HumidityBarometerVisibility
12:00 AM
Nov 23
48 °FCool.7 mph99%30.00 "Hg9 mi
11:00 PM
Nov 22
48 °FCool.7 mph98%30.00 "Hg10 mi
10:00 PM48 °FCool.8 mph98%29.97 "Hg14 mi
9:00 PM48 °FCool.6 mph97%29.97 "Hg14 mi
8:00 PM49 °FCool.6 mph99%29.96 "Hg11 mi
7:00 PM49 °FCool.7 mph98%29.94 "Hg6 mi
6:00 PM51 °FCool.7 mph96%29.93 "Hg13 mi
5:00 PM52 °FCool.6 mph92%29.92 "Hg17 mi
4:00 PM53 °FCool.5 mph95%29.90 "Hg19 mi
3:00 PM54 °FCool.12 mph99%29.88 "Hg16 mi
2:00 PM56 °FCool.9 mph100%29.87 "Hg10 mi
1:00 PM56 °FCool.5 mph100%29.87 "Hg7 mi
12:00 PM55 °FCool.10 mph100%29.87 "Hg3 mi
11:00 AM54 °FCool.9 mph100%29.87 "Hg3 mi
10:00 AM54 °FCool.13 mph100%29.86 "Hg4 mi
9:00 AM53 °FCool.9 mph100%29.85 "Hg2 mi
8:00 AM53 °FCool.15 mph100%29.83 "Hg6 mi
7:00 AM53 °FCool.12 mph100%29.82 "Hg2 mi
6:00 AM52 °FCool.8 mph100%29.81 "Hg0 mi
5:00 AM51 °FCool.8 mph100%29.82 "Hg0 mi
4:00 AM50 °FCool.8 mph100%29.82 "Hg0 mi
3:00 AM49 °FCool.10 mph100%29.83 "Hg0 mi
2:00 AM47 °FCool.13 mph100%29.83 "Hg0 mi
1:00 AM47 °FCool.10 mph100%29.84 "Hg0 mi
Weather by CustomWeather, © 2014

See weather overviewHow to use our weather pages